TIME,DELAY(SENSOR),PRES,OXYGEN,RAWTEMP,T(OPTODE),TCPHASE,FLUOR,BETA(BETA700),BETA(BETA412),BETA(BETA440),CDOM,C(CSC),ED(ED411.90),ED(ED443.80),ED(ED489.40),ED(ED554.70),LU(LU412.20),LU(LU443.80),LU(LU489.40),LU(LU555.00),COMP,TILTX,TILTY,CHECK
1356991789,5808,851.6099853515625000,162.0614013671875000,424.7886047363281000,9.8457584381103520,39.2187690734863300,52,101,96,80,79,12273,2146964306,2147516416,2147291264,2147504804,2147090669,2146927734,2147700717,2147122916,661,-1,9,33311
1356995386,5804,965.8800048828125000,193.5758056640625000,500.1607971191406000,7.5245041847229000,38.3045501708984400,51,101,100,79,81,12266,2146961508,2147516260,2147295990,2147516662,2147093074,2146928237,2147718701,2147118464,2786,-1,9,59008
1356998986,5804,980.0499877929688000,207.5718994140625000,509.6188049316406000,7.2307682037353520,37.6090011596679700,52,100,98,78,80,12261,2146964416,2147516507,2147296576,2147518582,2147092297,2146923428,2147718070,2147120237,3348,-1,9,6539
1357002586,5808,983.9500122070312000,207.9163970947265600,510.5086059570312500,7.2031021118164060,37.6037712097168000,51,99,97,78,82,12263,2146962514,2147519277,2147298304,2147519094,2147091181,2146924598,2147718491,2147123410,101,-1,8,640
1357006186,5805,984.9400024414062000,211.9134979248047000,514.1743774414062000,7.0890660285949710,37.4336013793945300,52,101,111,79,80,12257,2146964086,2147519396,2147299922,2147519570,2147090523,2146920777,2147718317,2147122642,3006,-1,9,37324
1357009786,5806,984.9299926757812000,211.5747985839843800,516.0281982421875000,7.0313611030578610,37.4862213134765600,52,100,97,80,80,12260,2146964187,2147514843,2147296841,2147518308,2147089334,2146922203,2147718272,2147120310,3286,-1,9,14513
1357013386,5808,983.7600097656250000,215.1535034179687500,517.7604980468750000,6.9774160385131840,37.3095207214355500,51,100,96,79,81,12251,2146967826,2147519232,2147298075,2147520704,2147090624,2146922834,2147723830,2147119744,151,-1,8,35447
1357016986,5809,985.8400268554688000,216.1374053955078000,518.7866210937500000,6.9454550743103030,37.2717094421386700,52,99,97,79,81,12258,2146965668,2147520420,2147301449,2147516022,2147093668,2146925202,2147720722,2147122203,53,-1,8,20519
1357020586,5805,988.2299804687500000,215.7978973388672000,518.5026245117188000,6.9542999267578125,37.2857589721679700,52,100,98,79,81,12254,2146964818,2147521746,2147299328,2147520576,2147090523,2146921472,2147721627,2147122989,3387,-1,9,44307
1357024186,5807,992.0599975585938000,215.0684051513672000,517.6892700195312000,6.9796328544616700,37.3130607604980500,52,99,98,79,81,12254,2146964516,2147519195,2147298962,2147519085,2147091785,2146921481,2147717083,2147118966,174,-1,9,44381
1357027786,5808,994.7700195312500000,215.1421051025390600,517.6777954101562000,6.9799928665161130,37.3091888427734400,52,121,98,80,82,12253,2146963702,2147521654,2147298532,2147516361,2147089362,2146926217,2147719094,2147121124,184,-1,9,14155
1357031386,5805,999.6199951171875000,214.0146026611328000,517.2866821289062000,6.9921708106994630,37.3668594360351560,52,100,97,78,81,12230,2146964882,2147516608,2147297307,2147519469,2147095104,2146927186,2147718710,2147124864,3059,-1,9,38915
1357034986,5808,993.9000244140625000,214.2691040039062500,517.6707153320312000,6.9802122116088870,37.3589897155761700,52,99,96,79,81,12232,2146963867,2147517376,2147299044,2147518610,2147092068,2146921133,2147718043,2147124370,801,-1,9,42480
1357038586,5806,992.9000244140625000,214.6623992919922000,517.8649291992188000,6.9741659164428710,37.3399887084960940,52,99,97,79,82,12232,2146964708,2147517595,2147297243,2147519414,2147088539,2146922486,2147721554,2147122230,305,-1,8,3231
1357042186,5808,991.0300292968750000,214.6022033691406200,519.2180786132812000,6.9320092201232910,37.3669090270996100,52,99,99,79,80,12234,2146963126,2147515995,2147300790,2147518363,2147091062,2146926619,2147722130,2147122313,3365,-1,9,54202
1357045786,5804,991.0499877929688000,213.7505035400390600,519.1331787109375000,6.9346542358398440,37.4147186279296900,51,97,98,79,80,12231,2146960164,2147517120,2147296173,2147516114,2147090331,2146921636,2147722422,2147122377,323,-1,8,885
1357049386,5807,996.1799926757812000,215.2984924316406200,518.4879760742188000,6.9547557830810550,37.3146286010742200,52,99,99,79,81,12218,2146963529,2147516699,2147298157,2147522029,2147089673,2146922870,2147718400,2147120054,230,-1,9,32105
1357052986,5805,996.7600097656250000,215.6587066650390600,518.8016967773438000,6.9449830055236820,37.2995300292968750,51,98,98,79,80,12229,2146964644,2147515876,2147296146,2147517686,2147091785,2146924516,2147720932,2147119890,2800,-1,9,39577
1357056586,5804,997.8099975585938000,215.9259948730468800,518.8015747070312000,6.9449849128723145,37.2834892272949200,52,98,99,80,80,12232,2146963145,2147515026,2147296210,2147518592,2147089700,2146924416,2147720832,2147121801,3162,-1,9,4598
1357060186,5805,999.1300048828125000,214.7870025634765600,518.2506713867188000,6.9621491432189940,37.3393707275390600,52,100,99,77,81,12231,2146964525,2147519625,2147297033,2147519661,2147090843,2146925385,2147719524,2147119213,320,-1,8,33333
1357063786,5804,999.3400268554688000,215.5402069091797000,518.1785888671875000,6.9643931388854980,37.2951087951660160,51,98,97,79,81,12229,2146962706,2147518244,2147296841,2147518226,2147092690,2146921152,2147722368,2147120338,3082,-1,9,63911
1357067386,5806,1004.8400268554688000,214.8574981689453000,517.0468139648438000,6.9996428489685060,37.3143081665039060,51,100,98,79,80,12231,2146963904,2147516946,2147294820,2147519698,2147092827,2146915666,2147720877,2147122029,2830,-1,8,31884
1357070986,5805,1006.4299926757812000,213.5325012207031200,516.1428833007812000,7.0277900695800780,37.3740081787109400,51,103,98,79,80,12224,2146964836,2147515748,2147297728,2147516032,2147090304,2146921398,2147717467,2147121170,3309,-1,9,35726
1357074586,5805,1004.8800048828125000,211.8724060058593800,516.0468139648438000,7.0307822227478030,37.4690589904785160,52,98,98,77,80,12228,2146962962,2147514422,2147296950,2147517760,2147092032,2146926372,2147717878,2147118345,3046,-1,9,19010
1357078186,5805,999.1699829101562000,212.3970947265625000,516.9404296875000000,7.0029578208923340,37.4544792175293000,51,101,98,79,79,12199,2146964251,2147519515,2147295497,2147518482,2147092900,2146920786,2147721673,2147121014,2647,-1,9,43012
1357081786,5805,1001.0200195312500000,215.4895019531250000,518.5396118164062000,6.9531478881835940,37.3038711547851560,51,98,97,78,80,12213,2146965421,2147518857,2147298313,2147518262,2147090797,2146925019,2147718509,2147119250,3090,-1,9,36678
1357085386,5806,995.3599853515625000,215.2012023925781200,519.7485961914062000,6.9154810905456540,37.3418693542480500,52,98,99,79,80,12210,2146965248,2147519168,2147296777,2147519177,2147090377,2146924690,2147722130,2147118994,3281,-1,9,22751
1357088986,5806,990.4099731445312000,217.9123992919922000,522.3267211914062000,6.8351230621337890,37.2335395812988300,51,99,98,80,82,12211,2146964845,2147516032,2147295241,2147519625,2147090816,2146920777,2147722240,2147123721,66,-1,8,46445
1357092586,5806,995.7700195312500000,217.8583068847656200,522.1865234375000000,6.8394942283630370,37.2343406677246100,52,99,98,78,80,12208,2146965750,2147516589,2147299337,2147520265,2147090578,2146929426,2147721581,2147123931,3260,-1,9,16073
1357096186,5807,995.1900024414062000,216.7964935302734400,522.0477905273438000,6.8438181877136230,37.2922286987304700,51,100,97,80,81,12210,2146961206,2147516864,2147297609,2147518637,2147091684,2146917028,2147722349,2147119149,3379,-1,9,23722
1357099786,5805,997.6199951171875000,215.4405975341797000,519.5828857421875000,6.9206438064575195,37.3254508972168000,51,97,98,79,80,12199,2146963620,2147515949,2147299392,2147518765,2147091766,2146922953,2147720402,2147122102,3197,-1,9,22756
1357103386,5806,998.4400024414062000,214.7714996337890600,520.2141723632812000,6.9009709358215330,37.3751907348632800,51,96,99,79,80,12200,2146961755,2147518107,2147299401,2147520713,2147092781,2146921481,2147722112,2147119305,3047,-1,9,59313
1357106986,5806,1003.7399902343750000,214.4989013671875000,519.1282958984375000,6.9348077774047850,37.3717689514160160,51,98,97,79,80,12199,2146961901,2147517275,2147298605,2147519698,2147092525,2146918756,2147720713,2147120448,325,-1,8,58352
1357110586,5806,1004.5900268554688000,214.3948974609375000,518.8043823242188000,6.9449000358581540,37.3720207214355500,51,98,98,78,80,12201,2146963986,2147520457,2147297462,2147518016,2147091958,2146925211,2147718061,2147120146,3535,-1,9,32283
1357114186,5806,1006.3300170898438000,214.4514007568359400,517.7509155273438000,6.9777169227600100,37.3496093750000000,52,97,99,79,82,12199,2146965001,2147519680,2147295323,2147520667,2147092736,2146923245,2147719213,2147122194,550,-1,8,7342
1357117786,5809,1006.4400024414062000,214.4214019775390600,517.3513183593750000,6.9901618957519530,37.3446693420410160,51,97,98,79,81,12201,2146965001,2147513499,2147298944,2147520429,2147094052,2146921828,2147721865,2147124224,151,-1,8,27394
1357121386,5807,1003.4199829101562000,213.8025054931640600,517.6740112304688000,6.9801120758056640,37.3853797912597660,51,100,97,79,80,12198,2146964937,2147517577,2147296576,2147518793,2147089490,2146918729,2147717906,2147123712,262,-1,8,7070
1357124986,5808,1003.5300292968750000,212.9483032226562500,517.9879150390625000,6.9703330993652340,37.4403800964355500,53,97,98,79,80,12197,2146962669,2147518811,2147298578,2147520210,2147095104,2146920411,2147721526,2147122779,242,-1,9,43604
1357128586,5805,1000.5200195312500000,216.1239013671875000,520.2188720703125000,6.9008259773254395,37.2979507446289060,51,98,97,79,81,12197,2146966902,2147515894,2147302473,2147520000,2147092598,2146922532,2147721718,2147121261,2962,-1,9,56755
1357132186,5803,1005.7600097656250000,216.4216003417968800,519.0820922851562000,6.9362478256225590,37.2603683471679700,52,100,97,78,81,12196,2146960786,2147516598,2147296210,2147517440,2147089645,2146920182,2147721947,2147118902,2876,-1,9,21148
1357135786,5805,1000.2199707031250000,217.1226959228515600,520.7772827148438000,6.8834199905395510,37.2502403259277340,51,102,97,82,82,12196,2146963392,2147516900,2147298093,2147522806,2147091785,2146918656,2147724443,2147122870,2929,-1,9,21659
1357136755,5805,997.8200073242188000,216.5303955078125000,521.3231201171875000,6.8664097785949710,37.2937316894531250,52,99,97,80,80,12435,2146964891,2147516242,2147299108,2147519186,2147092333,2146922422,2147723456,2147122596,3444,-1,9,25480
